SQ2CET-13 Weather Reports


time (UTC)temp
C
wind
direction
speed
KPH
gust
KPH
rain 1hr
cm
rain 24hr
cm
rain mn
cm
humidity
%
barometer
mb
20260503005028 15 179 4.8 14.5 0.00 0.00 0.00 53 1016.2
20260503004051 15 212 4.8 11.3 0.00 0.00 0.00 53 1016.3
20260503003137 15 9 1.6 9.7 0.00 0.00 0.00 54 1016.2
20260503002027 15 222 3.2 11.3 0.00 0.00 0.00 54 1016.4
20260503001053 15 208 4.8 14.5 0.00 0.00 0.00 54 1016.3
20260503000115 15 175 4.8 9.7 0.00 0.00 0.00 54 1016.5
20260502235036 15 176 3.2 8.0 0.00 0.00 0.00 54 1016.6
20260502234100 15 215 3.2 8.0 0.00 0.00 0.00 54 1016.6
20260502233019 15 96 3.2 8.0 0.00 0.00 0.00 54 1016.8
20260502232044 15 214 1.6 6.4 0.00 0.00 0.00 54 1016.9
20260502231107 15 231 1.6 8.0 0.00 0.00 0.00 54 1016.9
20260502230027 15 202 3.2 8.0 0.00 0.00 0.00 54 1016.9
20260502225052 15 240 1.6 8.0 0.00 0.00 0.00 53 1017.2
20260502224116 15 232 3.2 8.0 0.00 0.00 0.00 53 1017.1
20260502223036 15 217 1.6 6.4 0.00 0.00 0.00 53 1017.2
20260502222100 15 238 1.6 6.4 0.00 0.00 0.00 53 1017.3
20260502221022 15 214 1.6 6.4 0.00 0.00 0.00 53 1017.2
20260502220045 15 229 1.6 4.8 0.00 0.00 0.00 53 1017.4
20260502215108 15 235 1.6 4.8 0.00 0.00 0.00 52 1017.4
20260502214024 14 217 1.6 4.8 0.00 0.00 0.00 52 1017.4
20260502213104 14 196 1.6 6.4 0.00 0.00 0.00 53 1017.4
20260502212128 13 273 0.0 4.8 0.00 0.00 0.00 54 1017.6
20260502211029 12 197 1.6 4.8 0.00 0.00 0.00 56 1017.6
20260502210112 12 253 0.0 3.2 0.00 0.00 0.00 59 1017.7
20260502205115 12 0.0 1.6 0.00 0.00 0.00 62 1017.8
20260502204036 12 0.0 0.0 0.00 0.00 0.00 62 1017.7
20260502203059 11 0.0 0.0 0.00 0.00 0.00 64 1017.8
20260502202039 12 0.0 0.0 0.00 0.00 0.00 64 1017.9
20260502201043 12 0.0 0.0 0.00 0.00 0.00 63 1018.0
20260502200109 12 0.0 0.0 0.00 0.00 0.00 60 1018.1
20260502195028 12 0.0 0.0 0.00 0.00 0.00 61 1018.0
20260502194052 13 0.0 0.0 0.00 0.00 0.00 60 1018.1
20260502193116 13 0.0 1.6 0.00 0.00 0.00 62 1018.2
20260502192036 14 0.0 1.6 0.00 0.00 0.00 53 1018.1
20260502191059 14 0.0 1.6 0.00 0.00 0.00 53 1018.1
20260502190020 15 0.0 0.0 0.00 0.00 0.00 52 1018.2
20260502185043 15 0.0 0.0 0.00 0.00 0.00 50 1018.0
20260502184107 16 0.0 0.0 0.00 0.00 0.00 47 1018.2
20260502183027 17 0.0 1.6 0.00 0.00 0.00 46 1018.2
20260502182051 17 0.0 1.6 0.00 0.00 0.00 44 1018.3
20260502181115 18 0.0 3.2 0.00 0.00 0.00 42 1018.2
20260502164027 23 275 1.6 6.4 0.00 0.00 0.00 33 1019.0
20260502163044 23 181 3.2 6.4 0.00 0.00 0.00 33 1018.9
20260502162128 23 270 1.6 6.4 0.00 0.00 0.00 32 1019.1
20260502161107 23 326 1.6 4.8 0.00 0.00 0.00 32 1019.3
20260502152051 23 326 3.2 8.0 0.00 0.00 0.00 31 1020.2
20260502151118 23 163 3.2 6.4 0.00 0.00 0.00 31 1020.3
20260502123050 25 236 11.3 20.9 0.00 0.00 0.00 24 1021.6
20260502122114 26 247 12.9 24.1 0.00 0.00 0.00 24 1021.9
20260502121056 25 235 6.4 20.9 0.00 0.00 0.00 24 1022.0
20260502115018 25 222 9.7 17.7 0.00 0.00 0.00 25 1022.2
20260502114042 25 243 4.8 16.1 0.00 0.00 0.00 25 1022.3
20260502113059 25 223 8.0 16.1 0.00 0.00 0.00 26 1022.5
20260502112020 25 237 8.0 22.5 0.00 0.00 0.00 26 1022.6
20260502111103 26 230 6.4 14.5 0.00 0.00 0.00 25 1022.8
20260502110108 25 205 3.2 14.5 0.00 0.00 0.00 26 1022.7
20260502105028 26 237 1.6 6.4 0.00 0.00 0.00 25 1022.9
20260502104051 24 225 4.8 8.0 0.00 0.00 0.00 27 1023.0
20260502103115 23 258 6.4 12.9 0.00 0.00 0.00 28 1023.2
20260502102056 24 241 6.4 12.9 0.00 0.00 0.00 27 1023.3
20260502101059 23 232 4.8 14.5 0.00 0.00 0.00 27 1023.4
20260502091116 21 257 3.2 11.3 0.00 0.00 0.00 32 1024.0
20260502071040 16 236 3.2 8.0 0.00 0.00 0.00 45 1024.6
20260502070043 16 234 4.8 9.7 0.00 0.00 0.00 47 1024.9
20260502065128 16 237 4.8 12.9 0.00 0.00 0.00 49 1024.9
20260502064027 15 242 6.4 11.3 0.00 0.00 0.00 50 1024.8
20260502063051 15 235 6.4 11.3 0.00 0.00 0.00 52 1024.8
20260502062115 14 253 3.2 9.7 0.00 0.00 0.00 53 1024.9
20260502061035 13 231 6.4 12.9 0.00 0.00 0.00 55 1025.0
20260502060059 13 238 4.8 17.7 0.00 0.00 0.00 56 1025.0
20260502055020 13 233 4.8 16.1 0.00 0.00 0.00 56 1024.9
20260502054043 12 225 6.4 14.5 0.00 0.00 0.00 57 1025.0
20260502053108 12 230 6.4 11.3 0.00 0.00 0.00 58 1025.0
20260502052027 12 226 4.8 11.3 0.00 0.00 0.00 59 1025.0
20260502051051 11 213 3.2 9.7 0.00 0.00 0.00 60 1024.9
20260502050115 11 222 3.2 8.0 0.00 0.00 0.00 60 1025.0
20260502045035 10 219 3.2 8.0 0.00 0.00 0.00 61 1024.9
20260502044058 10 215 3.2 9.7 0.00 0.00 0.00 62 1025.0
20260502043039 10 225 3.2 6.4 0.00 0.00 0.00 62 1025.0
20260502042043 10 203 3.2 8.0 0.00 0.00 0.00 63 1024.9
20260502041106 9 226 3.2 8.0 0.00 0.00 0.00 63 1024.9
20260502040047 8 194 3.2 9.7 0.00 0.00 0.00 65 1024.8
20260502035050 8 200 4.8 11.3 0.00 0.00 0.00 66 1024.9
20260502034114 7 210 4.8 8.0 0.00 0.00 0.00 68 1025.0
20260502033035 7 206 4.8 8.0 0.00 0.00 0.00 68 1025.0
20260502032059 7 203 4.8 9.7 0.00 0.00 0.00 68 1024.9
20260502031019 7 223 4.8 8.0 0.00 0.00 0.00 68 1025.0
20260502030044 7 208 3.2 8.0 0.00 0.00 0.00 68 1025.0
20260502025128 7 213 3.2 8.0 0.00 0.00 0.00 67 1025.0
20260502024027 7 223 3.2 4.8 0.00 0.00 0.00 68 1025.1
20260502023051 7 215 4.8 8.0 0.00 0.00 0.00 67 1025.0
20260502022116 7 199 4.8 8.0 0.00 0.00 0.00 66 1025.0
20260502021034 7 224 4.8 6.4 0.00 0.00 0.00 66 1025.1
20260502020059 8 224 3.2 9.7 0.00 0.00 0.00 65 1025.1
20260502015018 8 214 4.8 11.3 0.00 0.00 0.00 64 1025.2
20260502014044 8 210 4.8 8.0 0.00 0.00 0.00 65 1025.2
20260502013106 8 204 4.8 8.0 0.00 0.00 0.00 65 1025.2
20260502012047 8 202 3.2 8.0 0.00 0.00 0.00 64 1025.2
20260502011050 8 206 3.2 6.4 0.00 0.00 0.00 64 1025.4
20260502010115 8 230 3.2 6.4 0.00 0.00 0.00 64 1025.3